Lewiston, ID

9:33 AM PST on January 20, 2017 (GMT -0800)
Lewiston-Nez Perce County

Weather History for KLWS - November, 2013

Change the Weather History Date:

Thursday, November 28, 2013

  Actual Average Record
Temperature  
Mean Temperature 31 °F 37 °F  
Max Temperature 32 °F 43 °F 60 °F (1973)
Min Temperature 29 °F 31 °F 0 °F (1896)
Degree Days  
Heating Degree Days 34 28  
Month to date heating degree days 724 658  
Since 1 July heating degree days 1292 1183  
Cooling Degree Days 0 0  
Month to date cooling degree days 0 0  
Year to date cooling degree days 1178 807  
Moisture  
Dew Point 27 °F    
Average Humidity 85    
Maximum Humidity 92    
Minimum Humidity 78    
Precipitation  
Precipitation T in 0.04 in 0.78 in (1923)
Month to date precipitation 0.69 1.11  
Year to date precipitation 8.74 11.27  
Snow  
Snow 0.00 in 0.10 in 3.60 in (2006)
Month to date snowfall T 1.6  
Since 1 July snowfall T 1.6  
Since 1 September snowfall T 1.6  
Snow Depth 0.00 in    
Sea Level Pressure  
Sea Level Pressure 30.23 in    
Wind  
Wind Speed 1 mph (South)    
Max Wind Speed 6 mph    
Max Gust Speed 14 mph    
T = Trace of Precipitation, MM = Missing Value Source: NWS Daily Summary

Daily Weather History Graph

Daily Weather History Graph

Search for Another Location

Airport or City:

Trip Planner

Search our weather history database for the weather conditions in past years. The results will help you decide how hot, cold, wet, or windy it might be!

Date:

Astronomy

Nov. 28, 2013 Rise Set
Actual Time 7:07 AM PST 4:04 PM PST
Civil Twilight 6:33 AM PST 4:38 PM PST
Nautical Twilight 5:56 AM PST 5:15 PM PST
Astronomical Twilight 5:20 AM PST 5:52 PM PST
Moon 1:59 AM PST (11/28) 1:29 PM PST (11/28)
Length of Visible Light 10h 04m
Length of Day
8h 56m
Waning Crescent, 21% of the Moon is Illuminated
Nov 28
Waning Crescent
Dec 2
New
Dec 9
First Quarter
Dec 17
Full
Dec 25
Last Quarter

Hourly Weather History & Observations

Time (PST) Temp. Windchill Dew Point Humidity Pressure Visibility Wind Dir Wind Speed Gust Speed Precip Events Conditions
12:56 AM 30.0 °F - 26.1 °F 85% 30.20 in 0.2 mi Calm Calm - N/A Fog Light Freezing Fog
1:56 AM 30.0 °F - 26.1 °F 85% 30.21 in 0.2 mi Calm Calm - 0.00 in Fog Light Freezing Fog
2:56 AM 28.9 °F - 25.0 °F 85% 30.21 in 0.5 mi Calm Calm - N/A Fog Light Freezing Fog
3:41 AM 28.4 °F - 24.8 °F 86% 30.16 in 0.2 mi Calm Calm - N/A Fog Light Freezing Fog
3:56 AM 28.9 °F - 26.1 °F 89% 30.21 in 0.2 mi Calm Calm - N/A Fog Light Freezing Fog
4:56 AM 28.9 °F - 26.1 °F 89% 30.21 in 0.2 mi Calm Calm - N/A Fog Light Freezing Fog
5:03 AM 28.4 °F - 26.6 °F 93% 30.16 in 0.2 mi Calm Calm - N/A Fog Light Freezing Fog
5:56 AM 28.9 °F 23.9 °F 25.0 °F 85% 30.22 in 0.2 mi SSW 4.6 mph - N/A Fog Light Freezing Fog
6:07 AM 28.4 °F 23.3 °F 24.8 °F 86% 30.17 in 0.2 mi South 4.6 mph - N/A Fog Light Freezing Fog
6:37 AM 28.4 °F 24.6 °F 24.8 °F 86% 30.17 in 0.2 mi South 3.5 mph - N/A Fog Light Freezing Fog
6:56 AM 30.0 °F 26.5 °F 26.1 °F 85% 30.23 in 0.2 mi South 3.5 mph - N/A Fog Light Freezing Fog
7:54 AM 30.2 °F 25.4 °F 24.8 °F 80% 30.20 in 0.5 mi SSW 4.6 mph - N/A   Haze
7:56 AM 28.9 °F 25.2 °F 25.0 °F 85% 30.25 in 0.5 mi SSW 3.5 mph - N/A Fog Light Freezing Fog
8:49 AM 30.2 °F 26.7 °F 26.6 °F 86% 30.22 in 0.2 mi South 3.5 mph - N/A Fog Light Freezing Fog
8:56 AM 30.0 °F 26.5 °F 26.1 °F 85% 30.26 in 0.2 mi South 3.5 mph - N/A Fog Light Freezing Fog
9:56 AM 30.9 °F - 27.0 °F 85% 30.26 in 0.2 mi Calm Calm - N/A Fog Light Freezing Fog
10:56 AM 32.0 °F - 27.0 °F 82% 30.25 in 0.2 mi Calm Calm - N/A   Haze
11:35 AM 32.0 °F - 26.6 °F 80% 30.20 in 1.0 mi Calm Calm - N/A   Haze
11:44 AM 30.2 °F - 26.6 °F 86% 30.20 in 1.8 mi Calm Calm - N/A   Overcast
11:53 AM 30.2 °F - 26.6 °F 86% 30.19 in 2.0 mi Calm Calm - N/A   Overcast
11:56 AM 30.9 °F - 28.0 °F 89% 30.25 in 2.0 mi Calm Calm - N/A   Overcast
12:06 PM 30.2 °F 26.7 °F 26.6 °F 86% 30.20 in 1.5 mi East 3.5 mph - N/A   Overcast
12:12 PM 30.2 °F - 26.6 °F 86% 30.20 in 0.8 mi Calm Calm - N/A   Overcast
12:24 PM 30.2 °F - 26.6 °F 86% 30.20 in 0.2 mi Calm Calm - N/A Fog Light Freezing Fog
12:38 PM 30.2 °F - 28.4 °F 93% 30.20 in 0.5 mi Calm Calm - N/A Fog Light Freezing Fog
12:56 PM 30.9 °F - 28.0 °F 89% 30.25 in 0.5 mi Calm Calm - N/A Fog Light Freezing Fog
1:56 PM 30.9 °F - 28.0 °F 89% 30.24 in 0.8 mi Calm Calm - N/A   Overcast
2:06 PM 30.2 °F - 28.4 °F 93% 30.19 in 1.0 mi Calm Calm - N/A   Overcast
2:21 PM 30.2 °F - 28.4 °F 93% 30.18 in 0.8 mi Calm Calm - N/A   Overcast
2:56 PM 30.9 °F - 28.0 °F 89% 30.24 in 0.5 mi Calm Calm - N/A Fog Light Freezing Fog
3:15 PM 30.2 °F - 28.4 °F 93% 30.19 in 0.2 mi Calm Calm - N/A Fog Light Freezing Fog
3:56 PM 30.9 °F - 28.0 °F 89% 30.24 in 0.2 mi Calm Calm - N/A Fog Light Freezing Fog
4:56 PM 30.0 °F - 28.0 °F 92% 30.25 in 0.2 mi Calm Calm - N/A Fog Light Freezing Fog
5:56 PM 30.9 °F - 27.0 °F 85% 30.25 in 0.2 mi Calm Calm - N/A Fog Light Freezing Fog
6:56 PM 30.9 °F - 27.0 °F 85% 30.25 in 0.2 mi Calm Calm - N/A Fog Light Freezing Fog
7:13 PM 32.0 °F - 26.6 °F 80% 30.21 in 0.2 mi Calm Calm - N/A   Haze
7:56 PM 32.0 °F 28.7 °F 27.0 °F 82% 30.27 in 0.2 mi WSW 3.5 mph - N/A   Haze
8:56 PM 32.0 °F - 27.0 °F 82% 30.28 in 0.2 mi Calm Calm - N/A   Haze
9:56 PM 32.0 °F - 27.0 °F 82% 30.28 in 0.2 mi Calm Calm - N/A   Haze
10:56 PM 30.9 °F 27.5 °F 27.0 °F 85% 30.29 in 0.2 mi South 3.5 mph - N/A Fog Light Freezing Fog
11:56 PM 30.9 °F 27.5 °F 26.1 °F 82% 30.30 in 0.2 mi SSE 3.5 mph - N/A   Haze